User: anonymous   Login
Location: Unspecified
(0.0000°N, 0.0000°E)
Time: 06:39:26
(UTC+00:00)
Language:

Nadezhda 5 - Orbit

View from above orbital plane
View from above orbital plane
View from above satellite
View from above satellite

Ground track
Ground track

The orbit data is extracted from the following two-line orbital elements,

1 25567U 98072A   18321.53573574  .00000040  00000-0  28174-4 0  9995
2 25567  82.9455 326.7588 0024777 229.2849 241.4995 13.71839797998254
Epoch (UTC): 17 November 2018 12:51:27
Eccentricity: 0.0024777
inclination: 82.9455°
perigee height: 975 km
apogee height: 1011 km
right ascension of ascending node: 326.7588°
argument of perigee: 229.2849°
revolutions per day: 13.71839797
mean anomaly at epoch: 241.4995°
orbit number at epoch: 99825

The dashed part of the orbit path shows where the satellite is in the earth's shadow,  

DLR